Home   Weather   Seeb   Past weeks

Flag for Oman Past Weather in Seeb, Oman — Yesterday and Last 2 Weeks

Now
88 °F

Clear.


Feels Like: 91 °F
Forecast: 81 / 93 °F
Wind: 10 mph from Northeast

Location: International Airport

Current Time: Apr 23, 2017 at 4:23:25 pm

Latest Report: Apr 23, 2017 at 2:50 pm


Visibility: 6 mi

Pressure: 29.71 "Hg

Humidity: 52%

Dew Point: 68 °F

Location of SeebLocation

Past Weather in Seeb — Graph

°F

Seeb Temperature Yesterday

Maximum temperature yesterday: 95 °F (at 12:50 pm)
Minimum temperature yesterday: 79 °F (at 5:50 am)
Average temperature yesterday: 87 °F

High & Low Weather Summary for the Past Weeks

 TemperatureHumidityPressure
High104 °F (Apr 19, 9:50 am)89% (Apr 12, 5:50 am)29.95 "Hg (Apr 12, 5:50 am)
Low75 °F (Apr 13, 4:50 am)8% (Apr 14, 9:50 am)29.62 "Hg (Apr 21, 2:50 pm)
Average89 °F39%29.77 "Hg
* Reported Apr 8 2:50 pm — Apr 23 2:50 pm, Seeb, Weather by CustomWeather, © 2017

Note: Actual official high and low records may vary slightly from our data, if they occured in-between our weather recording intervals... More about our weather records

Advertising

Seeb Weather History for the Previous 24 Hours

Scroll right to see more
 ConditionsComfort  
Time TempWeatherWind HumidityBarometerVisibility
2:50 pm
Sun, Apr 23
88 °FClear.10 mph52%29.71 "Hg6 mi
1:50 pm91 °FClear.12 mph41%29.74 "Hg6 mi
12:50 pm93 °FClear.13 mph39%29.77 "Hg6 mi
11:50 am95 °FClear.13 mph30%29.77 "Hg5 mi
10:50 am91 °FClear.10 mph46%29.77 "Hg5 mi
9:50 am95 °FClear.10 mph30%29.80 "Hg5 mi
8:50 am95 °FClear.1 mph22%29.80 "Hg4 mi
7:50 am91 °FClear.No wind24%29.77 "Hg4 mi
6:50 am82 °FClear.No wind40%29.74 "Hg5 mi
5:50 am81 °FClear.No wind39%29.71 "Hg5 mi
4:50 am84 °FClear.3 mph33%29.71 "Hg10 mi
3:50 am84 °FClear.5 mph33%29.68 "Hg10 mi
2:50 am84 °FClear.5 mph43%29.68 "Hg10 mi
1:50 am84 °FClear.7 mph48%29.68 "Hg10 mi
12:50 am84 °FClear.6 mph55%29.71 "Hg10 mi
11:50 pm
Sat, Apr 22
84 °FClear.1 mph58%29.71 "Hg10 mi
10:50 pm84 °FClear.3 mph62%29.71 "Hg10 mi
9:50 pm84 °FClear.6 mph66%29.71 "Hg10 mi
8:50 pm86 °FPassing clouds.5 mph62%29.71 "HgN/A
7:50 pm88 °FClear.8 mph55%29.68 "Hg10 mi
6:50 pm88 °FClear.6 mph59%29.65 "Hg10 mi
5:50 pm90 °FPassing clouds.6 mph52%29.65 "HgN/A
4:50 pm90 °FPassing clouds.9 mph55%29.65 "HgN/A
Weather by CustomWeather, © 2017

See weather overviewHow to use our weather pages